Regional Weather Roundup
Issued by NWS Jackson, KY

Home | Current Version | Previous Version | Text Only | Print | Product List | Glossary On
Versions: 1 2 3 4 5 6 7 8 9 10 11 12 13 14 15 16 17 18 19 20 21 22 23 24 25 26 27 28 29 30 31 32 33 34 35 36 37 38 39 40 41 42 43 44 45 46 47 48 49 50
000
ASUS43 KJKL 072110
RWRJKL

EAST KENTUCKY HOURLY WEATHER ROUNDUP
NATIONAL WEATHER SERVICE JACKSON KY
400 PM EST WED DEC 07 2016

NOTE: "FAIR" INDICATES FEW OR NO CLOUDS BELOW 12,000 FEET WITH
NO SIGNIFICANT WEATHER AND/OR OBSTRUCTIONS TO VISIBILITY.

* THESE REPORTS ARE NOT UNDER NWS QUALITY CONTROL AND MAY NOT
  REPORT WEATHER SUCH AS PRECIPITATION AND FOG.

KYZ079-080-083-085-087-088-110-112-115-119-120-072200
...EASTERN KENTUCKY...

CITY           SKY/WX    TMP DP  RH WIND       PRES   REMARKS
JACKSON        SUNNY     47  24  40 CALM      30.08S
LONDON         SUNNY     46  28  49 CALM      30.08S
SOMERSET*      MOSUNNY   45  28  53 N8        30.11R
MONTICELLO*    MOSUNNY   46  30  53 NW7       30.12R
WILLIAMSBURG*  CLEAR     45  32  61 N3        30.09S
MIDDLESBORO*   SUNNY     47  34  60 N7        30.07S
PIKE CO APT*     N/A     42  28  56 CALM      30.09R
BIG SANDY APT* CLEAR     45  31  57 CALM      30.10R
MOREHEAD APT*  CLOUDY    45  18  33 W3        30.12S HAZE
ASHLAND*       CLOUDY    46  27  46 CALM      30.10R
$$

KYZ035-036-041-042-044-050-067-078-099-072200
...CENTRAL KENTUCKY...

CITY           SKY/WX    TMP DP  RH WIND       PRES   REMARKS
MT STERLING*   CLOUDY    45  23  42 NW5       30.13R
FLEMING/MASON* CLOUDY    41  24  49 W3        30.13R
DANVILLE*      CLOUDY    43  23  45 CALM      30.12S
LEXINGTON      CLOUDY    43  25  49 NW6       30.12R
FRANKFORT      CLOUDY    42  24  49 NW3       30.12R
LOUISVILLE     PTSUNNY   43  18  36 CALM      30.15R
LEBANON*       MOCLDY    43  23  45 NW6       30.13R
GLASGOW*       SUNNY     47  26  44 N5        30.13R
BOWLING GREEN  SUNNY     49  23  36 MISG      30.15R
$$

KYZ091>093-OHZ055-061-077-WVZ005-015-034-035-042-072200
...SOUTHERN OHIO/WEST VIRGINIA...

CITY           SKY/WX    TMP DP  RH WIND       PRES   REMARKS
COVINGTON      CLOUDY    38  23  55 W8        30.12S WCI  32
COLUMBUS       CLOUDY    36  25  64 S8        30.10S WCI  30
DAYTON         PTSUNNY   36  21  54 SW13      30.11S WCI  27
WILMINGTON     CLOUDY    37  21  52 SW8       30.11R WCI  31
HUNTINGTON     PTSUNNY   47  21  35 SE5       30.09S
CHARLESTON     PTCLDY    45  25  45 CALM      30.10S
PINEVILLE*     SUNNY     42  31  65 MISG      30.11S
BECKLEY        CLEAR     43  18  36 N6        30.05R
BLUEFIELD      SUNNY     42  28  57 N6        30.04R
LOGAN CO APT*    N/A     45  27  49 CALM      30.07S
$$

VAZ002-007-008-TNZ017-027-036-066-071-072200
...SOUTHWEST VIRGINIA/EAST TENNESSEE...

CITY           SKY/WX    TMP DP  RH WIND       PRES   REMARKS
WISE*          SUNNY     41  30  65 NE5       30.05S
JONESVILLE*      N/A     52  36  54 N3        30.06S
ABINGDON*      SUNNY     52  32  46 E3        30.03R
BRISTOL        MOSUNNY   52  32  46 N8        30.03R
MORRISTOWN*    CLEAR     52  36  54 N3        30.02F
SEVIERVILLE*   CLEAR     54  37  54 NE3       30.03S
KNOXVILLE      PTSUNNY   55  36  48 N5        30.02S
OAK RIDGE      MOSUNNY   53  36  52 VRB6      30.05S
CROSSVILLE     CLOUDY    42  34  73 N6        30.06R
NASHVILLE      PTSUNNY   49  31  49 N9        30.14R
$$

...KEY TO REMARKS...
VSB - VISIBILITY IN MILES
WCI - WIND CHILL INDEX
HX  - HEAT INDEX

$$



USA.gov is the U.S. government's official web portal to all federal, state and local government web resources and services.